When you browse on this site, cookies collect data to enhance your experience and personalize the content and advertising you see.
Visit our Privacy Policy to learn more. By continuing to use the site, you agree to this use of cookies and data.
  • In Austria
  • List of Countries
  • For 7 days
  • Water Temperature
  • Satellite Maps
  • Weather Map
  • News
  • Weather Widgets
  • user-avatar
    Login

    Hourly Weather Vidoshin

    Today, 24 May, Friday

    Time Temperature Precipitation Wind Pressure Humidity
    00:00 +16°C° 0 mm 1 mps 745 mmHg 89%
    01:00 +15°C° 0 mm 1 mps 745 mmHg 89%
    02:00 +15°C° 0 mm 1 mps 745 mmHg 90%
    03:00 +15°C° 0 mm 1 mps 745 mmHg 91%
    04:00 +15°C° 0 mm 1 mps 745 mmHg 92%
    05:00 +15°C° 0 mm 1 mps 745 mmHg 92%
    06:00 +16°C° 0 mm 2 mps 745 mmHg 87%
    07:00 +18°C° 0 mm 2 mps 745 mmHg 82%
    08:00 +20°C° 0 mm 2 mps 745 mmHg 76%
    09:00 +21°C° 0.4 mm 2 mps 745 mmHg 71%
    10:00 +24°C° 0.4 mm 2 mps 745 mmHg 66%
    11:00 +25°C° 0.4 mm 2 mps 745 mmHg 60%
    12:00 +25°C° 0.2 mm 2 mps 745 mmHg 59%
    13:00 +26°C° 0.2 mm 2 mps 745 mmHg 57%
    14:00 +26°C° 0.2 mm 2 mps 745 mmHg 56%
    15:00 +25°C° 0.5 mm 2 mps 744 mmHg 61%
    16:00 +25°C° 0.5 mm 2 mps 744 mmHg 67%
    17:00 +24°C° 0.5 mm 2 mps 744 mmHg 72%
    18:00 +21°C° 0.4 mm 2 mps 744 mmHg 78%
    19:00 +20°C° 0.4 mm 2 mps 744 mmHg 85%
    20:00 +18°C° 0.4 mm 2 mps 744 mmHg 92%
    21:00 +17°C° 0.1 mm 2 mps 744 mmHg 93%
    22:00 +17°C° 0.1 mm 2 mps 744 mmHg 95%
    23:00 +16°C° 0.1 mm 2 mps 744 mmHg 97%

    Tomorrow, 25 May, Saturday

    Time Temperature Precipitation Wind Pressure Humidity
    00:00 +15°C° 0 mm 2 mps 744 mmHg 97%
    01:00 +15°C° 0 mm 2 mps 744 mmHg 97%
    02:00 +14°C° 0 mm 2 mps 744 mmHg 98%
    03:00 +14°C° 0 mm 2 mps 744 mmHg 98%
    04:00 +14°C° 0 mm 2 mps 744 mmHg 98%
    05:00 +14°C° 0 mm 2 mps 743 mmHg 98%
    06:00 +15°C° 0 mm 2 mps 744 mmHg 94%
    07:00 +16°C° 0 mm 2 mps 744 mmHg 90%
    08:00 +17°C° 0 mm 2 mps 744 mmHg 86%
    09:00 +19°C° 0 mm 3 mps 744 mmHg 78%
    10:00 +21°C° 0 mm 3 mps 744 mmHg 70%
    11:00 +22°C° 0 mm 4 mps 744 mmHg 62%
    12:00 +23°C° 0 mm 4 mps 744 mmHg 59%
    13:00 +23°C° 0 mm 4 mps 743 mmHg 56%
    14:00 +25°C° 0 mm 5 mps 743 mmHg 53%
    15:00 +23°C° 0 mm 4 mps 743 mmHg 52%
    16:00 +23°C° 0 mm 4 mps 743 mmHg 51%
    17:00 +22°C° 0 mm 4 mps 743 mmHg 50%
    18:00 +21°C° 0 mm 3 mps 743 mmHg 58%
    19:00 +19°C° 0 mm 2 mps 743 mmHg 65%
    20:00 +18°C° 0 mm 1 mps 744 mmHg 73%
    21:00 +16°C° 0 mm 2 mps 744 mmHg 77%
    22:00 +15°C° 0 mm 2 mps 744 mmHg 80%
    23:00 +15°C° 0 mm 2 mps 744 mmHg 84%

    Day after tomorrow, 26 May, Sunday

    Time Temperature Precipitation Wind Pressure Humidity
    00:00 +14°C° 0 mm 2 mps 744 mmHg 87%
    01:00 +13°C° 0 mm 2 mps 745 mmHg 91%
    02:00 +13°C° 0 mm 2 mps 745 mmHg 94%
    03:00 +12°C° 0 mm 2 mps 745 mmHg 93%
    04:00 +12°C° 0 mm 2 mps 745 mmHg 93%
    05:00 +12°C° 0 mm 1 mps 745 mmHg 92%
    06:00 +13°C° 0 mm 2 mps 745 mmHg 83%
    07:00 +15°C° 0 mm 2 mps 746 mmHg 73%
    08:00 +17°C° 0 mm 2 mps 746 mmHg 63%
    09:00 +18°C° 0 mm 3 mps 746 mmHg 61%
    10:00 +19°C° 0 mm 3 mps 746 mmHg 58%
    11:00 +20°C° 0 mm 4 mps 746 mmHg 56%
    12:00 +20°C° 0 mm 4 mps 745 mmHg 54%
    13:00 +21°C° 0 mm 4 mps 745 mmHg 52%
    14:00 +22°C° 0 mm 4 mps 745 mmHg 50%
    15:00 +22°C° 0 mm 4 mps 745 mmHg 51%
    16:00 +22°C° 0 mm 5 mps 745 mmHg 52%
    17:00 +21°C° 0 mm 5 mps 745 mmHg 53%
    18:00 +20°C° 0 mm 4 mps 745 mmHg 60%
    19:00 +19°C° 0 mm 3 mps 745 mmHg 67%
    20:00 +17°C° 0 mm 3 mps 745 mmHg 74%
    21:00 +17°C° 0 mm 3 mps 745 mmHg 79%
    22:00 +16°C° 0 mm 3 mps 745 mmHg 83%
    23:00 +14°C° 0 mm 3 mps 746 mmHg 87%

    27 May, Monday

    Time Temperature Precipitation Wind Pressure Humidity
    00:00 +13°C° 0 mm 3 mps 746 mmHg 90%
    01:00 +13°C° 0 mm 2 mps 746 mmHg 93%
    02:00 +12°C° 0 mm 2 mps 746 mmHg 96%
    03:00 +12°C° 0 mm 2 mps 747 mmHg 95%
    04:00 +12°C° 0 mm 1 mps 747 mmHg 95%
    05:00 +11°C° 0 mm 1 mps 747 mmHg 94%
    06:00 +13°C° 0 mm 2 mps 747 mmHg 84%
    07:00 +15°C° 0 mm 2 mps 747 mmHg 74%
    08:00 +17°C° 0 mm 3 mps 748 mmHg 64%
    09:00 +19°C° 0 mm 3 mps 748 mmHg 59%
    10:00 +20°C° 0 mm 3 mps 748 mmHg 53%
    11:00 +22°C° 0 mm 3 mps 748 mmHg 48%
    12:00 +24°C° 0 mm 3 mps 748 mmHg 47%
    13:00 +25°C° 0 mm 3 mps 747 mmHg 47%
    14:00 +25°C° 0 mm 3 mps 747 mmHg 46%
    15:00 +25°C° 0 mm 3 mps 747 mmHg 48%
    16:00 +26°C° 0 mm 3 mps 746 mmHg 51%
    17:00 +26°C° 0 mm 3 mps 746 mmHg 53%
    18:00 +24°C° 0.1 mm 3 mps 746 mmHg 64%
    19:00 +21°C° 0.1 mm 3 mps 746 mmHg 75%
    20:00 +19°C° 0.1 mm 2 mps 746 mmHg 85%
    21:00 +19°C° 0.2 mm 2 mps 746 mmHg 88%
    22:00 +18°C° 0.2 mm 2 mps 746 mmHg 90%
    23:00 +18°C° 0.2 mm 2 mps 746 mmHg 92%

    28 May, Tuesday

    Time Temperature Precipitation Wind Pressure Humidity
    00:00 +18°C° 0 mm 2 mps 746 mmHg 93%
    01:00 +19°C° 0 mm 1 mps 746 mmHg 93%
    02:00 +18°C° 0 mm 1 mps 746 mmHg 94%
    03:00 +18°C° 0 mm 1 mps 746 mmHg 94%
    04:00 +19°C° 0 mm 1 mps 746 mmHg 93%
    05:00 +18°C° 0 mm 2 mps 746 mmHg 93%
    06:00 +19°C° 0 mm 2 mps 746 mmHg 90%
    07:00 +20°C° 0 mm 2 mps 746 mmHg 87%
    08:00 +21°C° 0 mm 2 mps 746 mmHg 83%
    09:00 +22°C° 0.2 mm 3 mps 746 mmHg 80%
    10:00 +23°C° 0.2 mm 4 mps 745 mmHg 77%
    11:00 +23°C° 0.2 mm 5 mps 745 mmHg 73%
    12:00 +25°C° 0.3 mm 4 mps 745 mmHg 71%
    13:00 +26°C° 0.3 mm 4 mps 745 mmHg 69%
    14:00 +26°C° 0.3 mm 3 mps 745 mmHg 67%
    15:00 +26°C° 1 mm 4 mps 744 mmHg 67%
    16:00 +27°C° 1 mm 4 mps 744 mmHg 67%
    17:00 +27°C° 1 mm 4 mps 744 mmHg 67%
    18:00 +25°C° 0.1 mm 3 mps 744 mmHg 70%
    19:00 +24°C° 0.1 mm 3 mps 744 mmHg 73%
    20:00 +22°C° 0.1 mm 3 mps 744 mmHg 76%
    21:00 +21°C° 0 mm 3 mps 744 mmHg 77%
    22:00 +20°C° 0 mm 3 mps 744 mmHg 79%
    23:00 +20°C° 0 mm 4 mps 744 mmHg 81%

    29 May, Wednesday

    Time Temperature Precipitation Wind Pressure Humidity
    00:00 +19°C° 0 mm 4 mps 744 mmHg 81%
    01:00 +19°C° 0 mm 4 mps 744 mmHg 80%
    02:00 +18°C° 0 mm 4 mps 743 mmHg 80%
    03:00 +18°C° 0.1 mm 4 mps 743 mmHg 81%
    04:00 +17°C° 0.1 mm 4 mps 743 mmHg 83%
    05:00 +17°C° 0.1 mm 3 mps 743 mmHg 84%
    06:00 +18°C° 0.1 mm 4 mps 744 mmHg 82%
    07:00 +19°C° 0.1 mm 4 mps 744 mmHg 80%
    08:00 +20°C° 0.1 mm 4 mps 744 mmHg 77%
    09:00 +22°C° 0 mm 4 mps 744 mmHg 72%
    10:00 +25°C° 0 mm 4 mps 744 mmHg 66%
    11:00 +27°C° 0 mm 4 mps 744 mmHg 61%
    12:00 +28°C° 0.2 mm 4 mps 744 mmHg 57%
    13:00 +29°C° 0.2 mm 4 mps 744 mmHg 53%
    14:00 +29°C° 0.2 mm 4 mps 744 mmHg 49%
    15:00 +29°C° 0.1 mm 4 mps 744 mmHg 51%
    16:00 +28°C° 0.1 mm 4 mps 744 mmHg 52%
    17:00 +28°C° 0.1 mm 4 mps 744 mmHg 54%
    18:00 +26°C° 0.3 mm 3 mps 745 mmHg 63%
    19:00 +24°C° 0.3 mm 2 mps 745 mmHg 72%
    20:00 +22°C° 0.3 mm 1 mps 745 mmHg 81%
    21:00 +21°C° 0 mm 1 mps 745 mmHg 84%
    22:00 +20°C° 0 mm 1 mps 745 mmHg 87%
    23:00 +19°C° 0 mm 1 mps 746 mmHg 90%
    Show more